Hourly Weather Holodnogorskiy

Today, 11 April, Sunday

Time Temperature Precipitation Wind Pressure Humidity
00:00 +3°C° 0 mm 1 mps 717 mmHg 95%
01:00 +4°C° 0 mm 1 mps 717 mmHg 95%
02:00 +3°C° 0 mm 0 mps 716 mmHg 95%
03:00 +3°C° 0 mm 0 mps 716 mmHg 94%
04:00 +3°C° 0 mm 0 mps 716 mmHg 94%
05:00 +3°C° 0 mm 0 mps 716 mmHg 93%
06:00 +3°C° 0 mm 0 mps 716 mmHg 93%
07:00 +4°C° 0 mm 0 mps 716 mmHg 92%
08:00 +5°C° 0 mm 1 mps 716 mmHg 91%
09:00 +5°C° 0 mm 1 mps 716 mmHg 90%
10:00 +7°C° 0 mm 1 mps 716 mmHg 87%
11:00 +7°C° 0 mm 2 mps 716 mmHg 84%
12:00 +8°C° 0 mm 2 mps 716 mmHg 81%
13:00 +8°C° 0 mm 2 mps 716 mmHg 80%
14:00 +9°C° 0 mm 2 mps 716 mmHg 79%
15:00 +9°C° 0 mm 2 mps 715 mmHg 78%
16:00 +9°C° 0 mm 2 mps 715 mmHg 81%
17:00 +8°C° 0 mm 2 mps 715 mmHg 84%
18:00 +9°C° 0 mm 1 mps 715 mmHg 87%
19:00 +9°C° 0 mm 1 mps 715 mmHg 88%
20:00 +8°C° 0 mm 1 mps 715 mmHg 89%
21:00 +8°C° 0 mm 1 mps 715 mmHg 91%
22:00 +8°C° 0 mm 1 mps 715 mmHg 91%
23:00 +8°C° 0 mm 1 mps 715 mmHg 92%

Tomorrow, 12 April, Monday

Time Temperature Precipitation Wind Pressure Humidity
00:00 +8°C° 0 mm 1 mps 714 mmHg 92%
01:00 +8°C° 0.3 mm 1 mps 715 mmHg 93%
02:00 +7°C° 0.3 mm 2 mps 715 mmHg 94%
03:00 +7°C° 0.3 mm 2 mps 715 mmHg 95%
04:00 +7°C° 0 mm 3 mps 715 mmHg 96%
05:00 +5°C° 0 mm 3 mps 715 mmHg 96%
06:00 +5°C° 0 mm 4 mps 716 mmHg 97%
07:00 +5°C° 0.1 mm 4 mps 716 mmHg 96%
08:00 +5°C° 0.1 mm 4 mps 716 mmHg 96%
09:00 +5°C° 0.1 mm 4 mps 717 mmHg 95%
10:00 +5°C° 0 mm 4 mps 717 mmHg 94%
11:00 +5°C° 0 mm 4 mps 717 mmHg 93%
12:00 +5°C° 0 mm 4 mps 718 mmHg 91%
13:00 +5°C° 0 mm 4 mps 718 mmHg 91%
14:00 +7°C° 0 mm 3 mps 718 mmHg 91%
15:00 +7°C° 0 mm 3 mps 718 mmHg 91%
16:00 +5°C° 0 mm 3 mps 718 mmHg 92%
17:00 +6°C° 0 mm 2 mps 718 mmHg 93%
18:00 +6°C° 0 mm 2 mps 718 mmHg 94%
19:00 +6°C° 0 mm 2 mps 718 mmHg 94%
20:00 +6°C° 0 mm 2 mps 718 mmHg 94%
21:00 +7°C° 0 mm 1 mps 718 mmHg 94%
22:00 +7°C° 0 mm 1 mps 718 mmHg 94%
23:00 +7°C° 0 mm 1 mps 718 mmHg 95%

Day after tomorrow, 13 April, Tuesday

Time Temperature Precipitation Wind Pressure Humidity
00:00 +7°C° 0 mm 1 mps 718 mmHg 95%
01:00 +7°C° 0.1 mm 1 mps 718 mmHg 95%
02:00 +7°C° 0.1 mm 1 mps 718 mmHg 95%
03:00 +7°C° 0.1 mm 1 mps 718 mmHg 96%
04:00 +7°C° 0 mm 1 mps 718 mmHg 96%
05:00 +7°C° 0 mm 1 mps 718 mmHg 96%
06:00 +6°C° 0 mm 0 mps 718 mmHg 96%
07:00 +7°C° 0 mm 1 mps 718 mmHg 95%
08:00 +8°C° 0 mm 1 mps 719 mmHg 94%
09:00 +7°C° 0 mm 2 mps 719 mmHg 93%
10:00 +7°C° 0.2 mm 2 mps 719 mmHg 92%
11:00 +7°C° 0.2 mm 2 mps 719 mmHg 91%
12:00 +8°C° 0.2 mm 2 mps 718 mmHg 90%
13:00 +8°C° 0 mm 2 mps 718 mmHg 89%
14:00 +9°C° 0 mm 1 mps 718 mmHg 89%
15:00 +9°C° 0 mm 1 mps 718 mmHg 88%
16:00 +9°C° 0 mm 1 mps 718 mmHg 90%
17:00 +9°C° 0 mm 1 mps 718 mmHg 91%
18:00 +8°C° 0 mm 0 mps 718 mmHg 92%
19:00 +7°C° 0 mm 0 mps 718 mmHg 93%
20:00 +7°C° 0 mm 0 mps 717 mmHg 93%
21:00 +8°C° 0 mm 1 mps 717 mmHg 93%
22:00 +8°C° 0 mm 1 mps 717 mmHg 94%
23:00 +8°C° 0 mm 1 mps 716 mmHg 94%

14 April, Wednesday

Time Temperature Precipitation Wind Pressure Humidity
00:00 +8°C° 0 mm 1 mps 716 mmHg 95%
01:00 +8°C° 0.1 mm 1 mps 715 mmHg 96%
02:00 +8°C° 0.1 mm 1 mps 715 mmHg 97%
03:00 +8°C° 0.1 mm 1 mps 715 mmHg 97%
04:00 +8°C° 0 mm 1 mps 715 mmHg 97%
05:00 +8°C° 0 mm 1 mps 715 mmHg 97%
06:00 +8°C° 0 mm 1 mps 715 mmHg 97%
07:00 +8°C° 0 mm 1 mps 715 mmHg 95%
08:00 +8°C° 0 mm 2 mps 715 mmHg 93%
09:00 +9°C° 0 mm 2 mps 715 mmHg 90%
10:00 +9°C° 0 mm 3 mps 715 mmHg 90%
11:00 +9°C° 0 mm 3 mps 715 mmHg 91%
12:00 +9°C° 0 mm 3 mps 715 mmHg 91%
13:00 +9°C° 0.1 mm 3 mps 715 mmHg 92%
14:00 +9°C° 0.1 mm 3 mps 715 mmHg 93%
15:00 +8°C° 0.1 mm 3 mps 715 mmHg 94%
16:00 +8°C° 0.2 mm 3 mps 715 mmHg 95%
17:00 +8°C° 0.2 mm 3 mps 715 mmHg 95%
18:00 +8°C° 0.2 mm 3 mps 715 mmHg 96%
19:00 +8°C° 0.1 mm 2 mps 715 mmHg 96%
20:00 +8°C° 0.1 mm 2 mps 716 mmHg 96%
21:00 +8°C° 0.1 mm 2 mps 716 mmHg 96%
22:00 +8°C° 0 mm 1 mps 715 mmHg 96%
23:00 +8°C° 0 mm 1 mps 715 mmHg 96%

15 April, Thursday

Time Temperature Precipitation Wind Pressure Humidity
00:00 +8°C° 0 mm 1 mps 715 mmHg 95%
01:00 +8°C° 0 mm 1 mps 715 mmHg 95%
02:00 +7°C° 0 mm 1 mps 714 mmHg 94%
03:00 +7°C° 0 mm 1 mps 714 mmHg 93%
04:00 +7°C° 0 mm 1 mps 714 mmHg 93%
05:00 +6°C° 0 mm 0 mps 714 mmHg 92%
06:00 +6°C° 0 mm 0 mps 714 mmHg 92%
07:00 +8°C° 0 mm 0 mps 714 mmHg 86%
08:00 +9°C° 0 mm 0 mps 714 mmHg 79%
09:00 +11°C° 0 mm 0 mps 714 mmHg 73%
10:00 +12°C° 0 mm 0 mps 714 mmHg 67%
11:00 +14°C° 0 mm 0 mps 714 mmHg 62%
12:00 +16°C° 0 mm 1 mps 714 mmHg 56%
13:00 +18°C° 0 mm 1 mps 714 mmHg 53%
14:00 +18°C° 0 mm 1 mps 714 mmHg 50%
15:00 +18°C° 0 mm 2 mps 713 mmHg 46%
16:00 +17°C° 0 mm 2 mps 714 mmHg 52%
17:00 +16°C° 0 mm 2 mps 714 mmHg 58%
18:00 +15°C° 0 mm 2 mps 714 mmHg 64%
19:00 +14°C° 0 mm 1 mps 714 mmHg 68%
20:00 +13°C° 0 mm 1 mps 714 mmHg 71%
21:00 +11°C° 0 mm 0 mps 714 mmHg 75%
22:00 +10°C° 0 mm 0 mps 714 mmHg 76%
23:00 +10°C° 0 mm 0 mps 714 mmHg 78%

16 April, Friday

Time Temperature Precipitation Wind Pressure Humidity
00:00 +9°C° 0 mm 0 mps 714 mmHg 80%
01:00 +9°C° 0 mm 0 mps 714 mmHg 80%
02:00 +9°C° 0 mm 0 mps 714 mmHg 81%
03:00 +8°C° 0 mm 0 mps 714 mmHg 81%
04:00 +9°C° 0 mm 1 mps 714 mmHg 83%
05:00 +9°C° 0 mm 1 mps 714 mmHg 84%
06:00 +9°C° 0 mm 1 mps 714 mmHg 85%
07:00 +10°C° 0 mm 1 mps 714 mmHg 79%
08:00 +12°C° 0 mm 2 mps 715 mmHg 72%
09:00 +13°C° 0 mm 2 mps 715 mmHg 66%
10:00 +13°C° 0 mm 3 mps 715 mmHg 63%
11:00 +13°C° 0 mm 3 mps 715 mmHg 59%
12:00 +14°C° 0 mm 3 mps 715 mmHg 56%
13:00 +13°C° 0.1 mm 3 mps 715 mmHg 59%
14:00 +13°C° 0.1 mm 3 mps 715 mmHg 62%
15:00 +13°C° 0.1 mm 3 mps 714 mmHg 65%
16:00 +12°C° 0 mm 3 mps 714 mmHg 69%
17:00 +13°C° 0 mm 2 mps 714 mmHg 72%
18:00 +13°C° 0 mm 2 mps 714 mmHg 75%
19:00 +12°C° 0.6 mm 2 mps 714 mmHg 82%
20:00 +10°C° 0.6 mm 2 mps 714 mmHg 89%
21:00 +9°C° 0.6 mm 2 mps 715 mmHg 96%
22:00 +8°C° 0.1 mm 2 mps 714 mmHg 96%
23:00 +8°C° 0.1 mm 2 mps 714 mmHg 97%
Show more